Theta_e
324 323 323 323 323 325 325 324 323 323 324 325 323 322 324 326 322 320 327 330 326 327 329 329 330 330 330 330 330 332 334 337 339 341 343 342 341 342 338 333 333 333 332 335 338 341 344 347 350 351 351 351 350 350 352 352 352 353 352 351 350 349 347 345 344 342 342 341 341 341 342 342 341 342 342 342 343 343 343 344 343 344 344 345 345 344 344
321 322 322 323 323 323 323 324 325 324 324 324 324 324 325 325 325 326 329 330 330 330 330 329 330 330 330 330 331 331 331 334 337 338 338 337 337 338 337 333 330 327 328 331 334 337 339 342 345 348 349 349 348 348 350 351 352 352 352 350 349 348 347 346 344 343 342 342 342 342 342 342 342 342 342 342 342 343 343 343 343 344 343 344 345 345 345
320 321 322 322 322 323 323 323 324 324 324 324 324 325 325 325 325 327 328 328 329 331 331 331 331 330 330 330 330 330 329 330 334 334 333 333 333 336 340 339 336 331 328 330 332 334 335 337 340 343 344 345 346 349 351 351 350 351 351 350 348 346 346 346 344 343 343 342 343 343 342 342 342 342 342 342 342 343 344 344 343 344 344 344 345 345 345
320 320 321 321 322 322 321 321 323 324 323 323 324 325 325 325 325 326 325 324 327 331 331 330 330 330 330 330 331 331 330 329 329 330 333 335 335 338 341 339 336 332 329 328 330 331 332 334 337 339 340 342 343 347 350 351 350 350 351 349 347 345 345 345 344 343 342 343 343 342 342 342 342 342 343 342 343 343 344 344 343 344 344 344 344 345 345
320 320 320 320 321 320 320 321 323 324 324 324 324 325 326 326 326 325 323 324 328 331 330 331 331 329 329 330 331 330 329 330 330 330 333 333 333 340 343 338 331 330 330 329 330 332 331 333 334 336 339 340 340 342 347 351 352 351 350 348 346 346 345 345 343 342 343 343 343 343 343 343 343 343 343 343 344 344 344 343 344 344 344 345 345 345 345
320 320 320 320 320 319 321 323 324 325 324 325 324 324 325 326 326 326 326 328 330 330 330 330 331 331 331 330 329 329 329 330 330 330 332 332 332 338 342 337 332 331 329 328 330 332 335 338 339 339 338 338 339 340 343 348 351 350 350 349 347 346 345 343 343 342 343 343 342 343 343 343 344 344 343 343 344 344 345 345 344 344 344 345 345 345 345
319 319 320 320 319 320 322 325 327 326 325 324 325 325 326 325 326 326 327 328 328 329 330 330 331 332 330 328 328 330 329 331 333 332 329 331 337 340 338 334 331 330 328 329 329 329 335 340 342 343 341 339 341 342 341 343 345 346 347 347 347 346 344 343 342 342 342 342 342 343 343 343 344 344 344 344 344 344 346 346 345 345 345 345 345 345 345
317 319 319 320 321 322 322 325 328 328 328 328 326 324 324 326 326 326 327 328 327 328 329 329 330 330 329 329 333 335 336 337 338 335 333 338 343 343 338 332 331 330 328 329 329 329 333 337 340 345 346 344 345 345 343 342 342 343 344 344 344 343 342 342 342 342 342 342 342 343 343 343 344 344 343 344 344 344 345 346 346 346 345 345 345 346 345
317 318 317 319 321 321 321 326 332 333 333 336 334 329 328 328 327 326 327 327 327 327 328 328 328 328 330 333 335 335 338 340 338 335 338 342 340 335 332 329 330 329 328 329 328 329 332 335 340 346 349 348 347 347 346 344 342 342 342 342 342 342 342 341 341 342 342 342 342 343 343 344 344 344 344 344 344 345 345 346 347 346 346 347 346 346 346
316 316 317 319 320 319 322 329 334 334 333 337 338 333 330 331 331 331 329 327 327 327 327 328 327 328 332 335 334 332 337 342 341 336 335 334 332 330 330 331 331 331 330 330 329 331 336 337 339 344 348 349 348 347 347 347 346 343 341 341 341 341 341 341 342 342 342 342 343 343 343 344 343 343 344 344 344 345 345 346 346 346 348 349 348 348 347
314 315 317 319 319 321 328 332 333 331 331 336 336 328 325 334 341 340 339 336 332 330 330 329 328 330 333 333 330 328 334 344 348 344 339 337 336 334 333 332 334 335 333 333 334 336 339 338 338 342 346 349 349 347 346 346 347 344 340 340 341 341 341 342 342 342 342 342 343 343 343 344 344 345 345 345 346 347 346 346 347 348 350 352 352 351 351
314 314 315 317 317 321 328 331 330 328 330 335 332 323 323 337 344 342 344 344 342 344 344 338 333 333 333 331 332 337 344 351 353 348 344 342 340 339 339 338 338 338 337 339 340 341 340 338 339 343 346 348 349 348 345 344 346 345 341 340 341 341 341 341 341 342 343 342 343 343 343 344 344 345 345 346 346 347 347 349 350 351 352 353 354 354 353
314 313 313 314 316 319 323 324 327 329 329 328 326 323 330 341 342 342 345 345 345 350 351 347 341 336 333 338 348 353 355 354 351 347 343 341 340 341 343 342 341 341 341 342 343 343 341 339 339 344 348 350 351 350 347 343 344 345 343 342 341 341 341 342 342 342 342 343 343 343 343 344 344 345 346 346 347 348 349 351 352 352 353 353 354 355 353
313 313 313 313 314 317 320 320 325 328 325 323 327 333 338 340 339 341 344 344 347 350 350 349 348 342 341 347 353 354 355 354 351 347 345 345 345 347 346 343 342 343 343 343 342 342 340 339 339 342 346 349 351 349 346 344 345 346 346 344 342 342 342 342 342 343 342 343 343 343 344 344 344 346 346 347 347 348 350 352 353 355 356 355 357 357 354
314 314 314 313 314 317 317 319 323 326 325 328 335 338 336 335 338 343 344 345 347 347 348 349 348 345 347 353 354 354 354 354 352 350 350 352 354 355 354 351 349 348 346 344 343 341 340 340 340 340 344 350 353 351 349 349 351 352 350 347 344 344 343 343 343 344 344 344 344 344 345 345 346 347 347 348 349 349 350 352 355 358 360 360 361 360 358
314 314 314 315 319 323 322 320 321 322 329 337 339 336 334 336 340 343 344 345 345 345 346 348 347 347 350 354 354 354 353 353 353 352 353 355 356 357 356 354 354 354 352 349 345 343 342 341 341 342 346 352 354 352 349 348 348 347 346 345 344 345 345 344 344 345 345 345 345 345 345 346 347 347 348 348 350 351 352 353 355 358 360 361 361 361 360
317 316 317 319 323 325 325 324 322 322 330 337 337 336 337 340 342 342 343 344 344 344 345 347 348 349 351 352 352 353 352 352 353 353 354 355 356 356 356 355 356 356 355 354 351 347 345 344 342 343 345 346 346 345 345 345 344 345 344 345 345 345 346 346 346 347 348 348 349 350 351 351 350 350 350 351 353 356 358 358 358 359 360 360 360 361 360
317 318 319 320 321 322 324 326 326 327 331 334 336 337 339 341 341 341 341 342 343 344 344 346 348 348 349 350 351 351 351 351 351 352 353 354 354 355 355 355 356 356 356 355 354 351 349 347 344 343 344 343 344 344 345 346 346 345 344 345 346 346 346 347 347 348 351 353 354 355 355 356 356 356 356 357 358 360 360 360 359 360 360 359 360 360 360
316 317 319 319 320 322 325 327 329 331 332 333 335 338 340 340 339 340 340 342 343 343 344 345 346 346 347 348 349 349 349 349 349 350 350 351 352 353 353 353 354 356 356 355 354 354 352 351 349 347 347 347 347 348 350 353 355 354 352 350 350 350 350 350 350 350 352 355 357 357 356 358 359 360 361 361 361 361 361 361 361 361 361 360 360 360 360
315 316 318 319 320 322 323 324 328 332 334 334 335 337 338 338 338 338 340 341 342 342 343 344 345 345 346 346 347 347 347 348 348 348 348 349 349 350 351 352 353 354 354 353 353 354 354 354 354 352 352 353 353 354 355 356 358 360 360 359 360 360 360 360 359 358 356 356 357 359 359 359 359 360 360 360 360 360 360 360 361 361 361 361 361 361 361
314 315 316 317 317 318 320 322 327 332 334 334 335 336 337 337 338 338 339 339 340 341 342 343 344 345 345 346 346 346 346 346 346 346 346 347 347 348 349 350 350 351 351 351 351 351 351 351 351 351 351 351 351 351 351 352 354 356 358 360 361 361 361 360 361 361 361 360 360 360 361 360 360 360 360 360 360 360 360 360 361 361 361 362 362 362 362
313 314 316 316 317 319 322 326 329 332 334 334 335 336 336 336 337 337 338 338 339 340 341 342 343 344 345 345 345 345 345 345 345 345 345 346 346 347 347 348 348 348 349 349 349 348 348 348 347 346 346 345 345 346 348 351 352 352 352 353 353 352 352 353 353 354 355 355 355 356 357 357 355 354 352 352 353 354 354 354 355 355 355 354 353 354 355
314 315 316 318 320 322 325 327 328 329 332 334 335 335 335 335 335 336 337 338 338 339 340 342 343 343 344 344 344 345 344 344 345 345 345 345 345 346 346 347 347 347 347 347 347 347 347 347 346 346 345 345 345 345 347 348 349 347 344 344 344 344 344 344 344 345 345 345 345 345 344 342 341 338 335 335 336 337 337 337 337 338 338 337 337 338 341
313 314 315 317 319 322 324 324 323 323 327 332 335 335 334 334 334 334 335 336 337 338 339 341 342 343 343 343 344 344 344 344 344 345 344 344 345 345 345 346 346 345 345 346 345 345 346 346 346 346 346 346 346 346 346 348 348 346 343 341 341 340 340 340 340 340 340 339 337 334 332 331 331 330 330 331 331 329 329 330 330 331 331 332 331 332 333
314 314 314 316 318 320 321 321 319 318 324 331 334 334 334 334 334 334 335 336 336 337 338 338 338 339 340 342 342 342 343 343 343 343 343 344 344 344 345 345 344 344 344 344 343 344 344 344 345 345 345 345 346 346 346 347 346 344 341 339 338 336 335 334 332 332 332 332 330 329 329 329 329 329 331 331 330 329 328 329 330 331 332 332 331 330 330
313 314 315 316 318 320 321 320 319 321 326 332 333 332 333 333 334 335 336 336 336 337 337 337 336 336 338 339 341 342 342 342 342 342 343 343 343 343 343 343 343 343 343 343 343 343 343 343 344 344 344 344 344 344 345 346 344 342 338 336 336 335 335 335 335 332 329 329 329 329 328 328 329 330 330 328 328 328 328 329 331 331 331 331 330 330 329
313 315 316 317 318 320 321 321 322 325 329 330 331 331 332 332 334 334 334 335 336 338 338 338 336 336 337 338 339 340 341 341 341 341 341 342 342 342 342 342 342 342 342 342 342 342 342 343 343 343 344 344 343 342 342 341 339 337 334 331 330 331 332 336 337 333 328 327 327 327 326 327 327 328 327 327 328 331 332 331 331 330 330 330 330 329 329
314 315 316 317 320 321 321 321 323 326 328 329 330 331 331 332 333 333 333 333 335 337 337 336 335 336 337 338 338 339 339 340 340 341 341 342 343 343 343 343 343 342 342 342 342 342 342 342 342 342 343 342 341 340 338 335 332 331 331 331 330 329 329 330 331 329 327 327 327 327 328 330 329 328 328 330 334 337 337 334 332 332 332 331 329 328 329
315 316 318 319 320 319 320 322 325 326 327 327 328 329 330 330 330 329 330 331 333 334 334 334 335 336 337 337 337 338 338 338 339 340 340 341 342 342 343 343 342 342 341 341 341 341 341 341 341 341 341 341 340 338 335 332 331 331 332 332 334 335 335 335 333 332 332 332 332 333 335 336 336 335 336 335 336 338 337 334 333 335 334 331 329 329 331
318 318 319 320 319 318 321 324 326 326 326 326 326 326 326 327 327 327 327 329 329 331 332 333 334 335 336 336 337 337 337 337 338 338 339 339 340 340 341 341 341 341 341 341 340 340 340 340 340 340 340 341 340 338 335 333 334 335 335 334 334 336 337 338 339 339 339 337 337 338 340 340 339 339 339 338 336 337 336 334 333 336 336 332 330 332 334
322 321 322 322 322 323 325 326 326 326 326 325 324 323 323 323 324 325 326 327 327 329 330 331 332 333 333 334 335 335 336 336 336 336 336 337 337 338 339 339 339 339 339 340 340 340 339 339 339 339 339 339 339 339 338 337 338 339 339 337 335 333 335 338 340 340 340 340 340 340 341 340 339 338 338 338 338 338 337 335 334 336 337 333 330 332 335
323 323 324 324 323 324 326 326 326 327 327 325 324 324 323 323 323 323 325 326 327 328 328 329 330 331 331 331 331 331 332 334 334 335 335 335 336 336 337 337 337 337 338 339 339 340 340 340 339 337 337 337 338 339 339 339 340 340 340 338 335 331 330 334 338 339 338 339 340 340 340 339 338 338 337 337 338 339 338 336 335 337 338 335 331 332 335
324 325 325 324 324 325 326 326 326 327 327 326 325 324 324 324 324 325 325 325 327 327 328 328 329 330 330 329 328 327 327 330 332 333 333 333 334 334 334 335 335 335 335 336 337 338 339 339 338 337 336 337 337 337 337 337 338 338 338 338 337 332 328 329 333 337 338 337 338 339 339 338 337 337 337 337 338 338 337 337 338 339 339 337 334 333 335
323 324 325 324 324 325 326 327 327 326 327 326 326 325 325 325 325 325 325 326 326 327 327 327 328 328 328 328 328 328 328 329 331 331 331 332 332 332 332 333 333 333 333 334 335 336 337 338 338 337 336 336 336 335 335 335 334 334 334 334 335 333 331 328 328 332 336 337 336 336 337 336 336 335 335 336 337 338 337 337 338 340 339 338 336 336 336
322 325 325 325 326 326 327 327 327 327 327 327 326 326 326 326 325 325 326 326 326 327 327 328 328 328 328 328 328 328 328 329 330 330 330 331 331 331 331 331 331 331 332 332 333 334 334 335 335 336 334 333 332 332 333 334 334 333 333 333 332 332 332 330 327 328 332 335 335 335 335 335 334 333 333 335 336 337 337 336 337 338 337 336 335 336 337
324 326 327 327 327 327 327 327 327 327 327 328 327 326 326 326 326 326 326 327 326 327 327 326 326 326 327 327 327 327 327 328 328 328 327 328 329 329 329 329 329 329 330 330 330 331 332 332 332 333 333 332 331 330 331 333 334 334 334 336 336 335 334 334 333 332 333 334 335 334 334 335 334 334 334 334 335 335 336 336 335 336 335 334 334 335 336
326 327 327 327 327 326 326 327 327 327 327 327 327 326 326 325 324 324 325 325 325 324 324 324 324 325 325 325 325 325 325 326 326 325 324 325 326 326 326 326 327 327 327 327 327 327 328 329 330 331 332 332 332 331 330 332 334 334 335 336 337 336 336 335 335 335 335 335 335 335 334 334 334 334 333 333 333 333 334 334 334 335 335 334 334 334 334
323 324 324 325 324 324 324 325 326 326 326 325 324 324 323 322 321 321 322 322 322 321 321 321 322 323 324 324 324 323 323 323 322 322 322 322 323 323 324 325 325 325 324 324 325 325 325 326 327 328 330 331 331 330 330 331 333 334 334 335 335 334 334 334 333 333 334 334 334 334 334 334 334 333 333 332 332 332 332 333 333 333 333 334 334 334 334
318 318 319 319 320 320 321 321 322 322 322 322 321 321 320 319 319 319 319 320 319 319 318 318 318 319 321 321 321 321 322 321 319 319 319 320 320 320 321 321 322 321 322 322 323 324 324 324 325 326 327 328 329 329 329 330 332 332 332 332 332 332 332 331 331 331 331 331 332 332 332 332 332 332 332 332 332 332 332 332 332 332 332 333 333 333 334
316 317 317 317 317 318 318 318 319 320 320 320 320 320 319 319 318 318 318 318 317 316 316 315 315 316 316 317 318 319 320 320 319 319 319 319 318 318 318 318 317 318 319 320 321 322 322 323 324 324 324 325 326 327 328 329 330 329 329 329 330 330 330 330 329 329 330 329 330 330 330 330 330 330 330 330 330 330 331 332 332 332 333 333 332 332 333
315 315 315 316 316 316 316 317 317 317 318 318 318 317 317 317 316 316 316 315 315 314 314 314 314 315 315 316 316 316 317 317 318 319 320 320 319 319 318 317 316 315 316 316 318 319 320 321 322 323 323 323 324 324 325 325 326 326 326 326 327 327 327 327 327 327 328 328 328 328 329 328 328 328 327 327 327 328 329 329 330 331 331 332 332 331 332
314 314 314 315 315 315 315 315 315 315 315 315 315 315 315 315 315 315 314 314 314 314 314 313 314 314 315 315 316 316 316 315 314 314 316 318 319 319 318 316 314 314 314 315 315 317 318 319 320 322 322 323 323 323 323 323 323 323 323 323 323 323 323 324 324 325 325 326 326 326 326 327 326 326 326 325 325 326 327 327 328 329 330 331 331 331 331
315 315 314 315 315 315 315 315 315 315 315 315 315 315 314 314 314 314 314 314 314 313 313 312 312 311 311 311 312 314 315 316 315 314 314 314 315 315 315 314 313 312 313 314 315 316 317 318 319 320 321 322 322 322 322 322 321 321 321 321 321 321 321 321 322 322 322 323 323 323 323 324 324 323 323 323 323 325 326 326 326 327 329 329 330 330 330
314 315 315 315 315 315 315 314 314 314 314 314 314 314 314 314 314 313 313 313 313 312 311 311 310 309 308 308 308 309 310 312 314 314 314 313 312 311 310 311 311 310 311 312 313 314 315 317 318 319 319 320 321 321 320 320 319 320 320 320 319 319 319 319 319 319 319 319 319 319 320 321 321 322 322 322 322 324 325 325 326 326 326 326 326 326 327
314 314 314 314 314 314 314 314 314 314 314 314 314 314 313 313 313 313 312 312 311 311 310 310 309 308 307 307 308 308 307 307 309 312 313 314 313 310 308 306 307 308 308 309 309 310 311 313 315 317 317 318 319 319 318 318 317 317 318 317 317 317 317 317 317 317 317 317 316 316 317 318 319 320 321 321 322 323 324 324 324 324 324 324 324 324 324
313 313 313 313 313 313 313 313 313 313 313 313 313 313 313 313 312 312 312 311 310 309 309 308 308 308 307 307 308 309 308 307 307 309 310 311 310 308 306 305 305 305 305 306 306 305 305 307 309 312 314 314 314 314 314 314 314 314 315 315 315 315 315 315 315 315 315 315 315 315 315 315 316 317 318 318 319 320 322 323 323 323 322 322 323 323 323
312 312 312 312 312 312 312 312 312 312 312 312 312 312 311 311 311 310 310 310 309 308 308 307 307 307 307 307 308 310 310 309 308 308 309 309 307 306 305 305 305 304 304 305 305 304 304 304 305 306 307 308 309 309 309 309 309 309 309 310 310 310 311 311 311 312 312 312 312 313 313 313 313 314 315 315 316 317 318 320 321 321 321 321 321 321 321
311 311 311 311 311 311 311 311 311 311 310 310 310 310 309 310 309 309 309 308 308 307 307 307 306 306 306 306 306 307 308 308 307 307 307 307 307 306 305 305 305 305 305 305 304 304 304 304 304 303 304 305 306 307 307 306 306 305 305 304 305 305 306 306 306 306 306 307 307 308 308 309 309 310 311 312 312 313 315 316 317 318 319 319 319 319 320
309 309 309 309 309 309 310 310 310 310 309 309 309 308 308 308 308 308 308 308 307 307 306 306 306 306 306 306 305 305 306 306 306 305 305 306 305 305 305 305 305 306 307 307 306 304 304 304 304 304 304 305 306 306 306 305 305 304 304 303 303 302 302 302 302 302 302 302 302 302 303 303 304 304 304 305 306 308 309 311 312 314 315 316 317 317 318
308 308 308 308 308 308 308 308 309 308 308 307 307 307 307 307 307 307 307 308 308 307 307 306 306 306 306 306 305 305 305 305 305 305 304 305 305 304 304 304 304 304 305 306 306 305 304 304 304 304 304 304 305 305 304 304 304 303 303 303 303 302 302 302 301 301 301 301 301 300 300 300 300 300 300 300 301 301 302 304 305 308 310 312 313 314 315
307 308 308 308 307 307 307 307 307 307 306 306 306 306 306 306 305 305 306 306 306 306 306 305 305 305 305 306 306 305 305 305 305 305 305 305 305 305 304 304 304 304 304 304 305 305 304 304 303 304 304 304 304 303 303 303 303 303 302 302 302 302 302 302 302 301 301 301 300 300 300 300 300 299 299 299 299 299 299 299 300 301 302 304 307 309 310
308 308 308 308 306 306 305 305 305 305 305 305 305 305 305 305 304 304 303 303 304 304 304 304 303 303 303 304 305 305 305 305 305 305 305 305 305 305 305 305 305 305 304 304 305 305 304 304 303 303 303 303 303 303 303 303 303 303 302 302 302 302 302 302 302 302 302 302 302 301 300 300 300 300 300 299 299 299 299 298 298 298 298 299 300 301 303
Wind_Speed
7 6 7 5 4 4 6 10 16 19 21 23 22 20 18 15 12 9 8 13 16 14 11 9 7 6 6 7 7 5 3 2 2 2 3 5 7 7 5 6 8 9 13 17 22 27 30 32 34 36 37 38 40 41 41 40 40 40 41 45 46 47 49 50 50 49 47 46 46 45 45 44 44 43 43 43 43 43 43 42 41 40 40 41 41 41 39
8 7 8 7 6 6 7 9 12 14 18 22 22 21 21 21 17 13 12 13 14 13 13 12 10 9 9 8 9 11 10 5 2 3 4 6 5 5 5 6 7 9 11 14 18 23 27 30 34 37 38 40 43 44 42 41 40 40 42 45 47 48 49 50 50 48 46 46 47 47 47 47 46 44 44 44 44 45 44 44 43 42 41 41 43 43 41
7 9 9 9 9 9 9 11 13 14 16 18 18 19 19 20 19 19 18 16 13 11 11 13 14 15 15 13 13 16 18 16 12 10 10 9 8 6 5 6 9 12 14 15 17 19 23 28 32 36 39 41 42 41 39 41 42 41 41 45 48 49 49 50 49 47 45 46 47 48 48 48 48 47 46 46 47 47 46 45 44 43 43 43 43 44 44
7 8 9 10 10 10 13 15 16 17 17 17 15 15 16 16 17 19 19 16 11 9 10 13 14 15 15 14 14 17 20 23 22 19 15 14 11 7 6 9 14 18 18 17 17 18 19 23 28 33 37 40 41 41 39 40 40 40 41 45 48 48 48 48 47 44 44 45 46 46 47 48 48 47 46 47 48 48 48 47 45 44 44 44 44 45 46
5 6 7 8 7 9 14 15 17 18 18 16 16 16 17 17 15 14 13 11 9 9 11 12 13 14 14 13 15 18 19 21 23 23 21 20 17 11 10 16 23 24 22 19 18 18 17 19 24 29 33 37 40 42 40 37 34 36 40 45 47 48 48 47 44 42 42 44 45 45 46 46 46 46 46 47 48 49 48 47 46 46 46 45 45 45 47
5 4 3 5 8 11 9 7 13 19 20 20 20 18 18 18 15 13 11 9 9 10 11 11 11 13 14 16 18 20 20 21 23 24 24 24 23 19 18 22 26 27 24 20 18 18 17 16 19 24 29 33 35 38 39 36 34 36 40 43 45 47 48 46 43 41 42 43 43 43 44 45 45 45 46 46 47 48 48 48 48 48 48 47 46 46 47
5 4 4 7 10 7 1 1 5 10 15 19 21 20 19 19 17 17 16 14 13 11 10 11 12 14 17 20 21 22 22 21 21 23 25 25 24 24 25 26 27 28 25 21 18 18 16 15 16 21 26 30 32 35 38 39 40 41 42 42 44 46 46 44 42 42 42 42 42 42 43 44 45 45 45 45 46 47 48 49 49 48 48 47 47 47 47
5 5 6 9 5 2 2 3 3 3 7 10 13 18 20 19 18 17 16 16 16 14 13 13 14 16 18 18 18 19 20 19 21 22 22 20 19 21 25 28 29 28 25 21 20 21 18 15 15 20 24 26 29 32 35 38 41 41 42 43 44 44 44 42 41 41 41 41 42 42 43 44 44 44 44 45 45 46 47 48 48 48 48 48 47 47 47
6 6 8 9 6 5 6 6 2 2 2 1 2 8 11 13 16 17 17 17 18 16 16 17 18 16 14 13 14 17 19 21 25 24 20 18 21 25 28 29 28 26 23 21 21 21 19 16 15 17 20 23 27 30 32 36 38 40 41 42 42 41 41 40 40 41 41 42 42 42 43 44 44 43 43 44 45 45 46 47 48 49 48 48 48 47 47
6 7 7 8 9 9 8 6 6 6 4 3 1 3 5 7 8 10 13 16 18 17 16 19 20 16 11 9 11 15 18 20 24 25 24 24 26 28 29 26 24 23 22 21 21 19 17 16 14 16 19 22 25 29 32 33 35 38 40 40 40 40 39 39 40 41 41 42 42 43 43 43 43 42 42 44 44 44 45 46 47 47 47 47 47 47 48
7 8 8 8 9 6 4 7 7 5 5 4 2 5 6 2 3 6 6 8 11 13 13 16 17 13 9 9 11 15 18 17 17 19 21 23 24 25 25 23 20 20 20 19 18 16 16 15 14 16 19 20 23 27 30 31 33 36 38 38 38 39 39 39 38 38 38 39 40 41 42 42 42 42 43 44 44 44 45 45 45 46 45 45 45 46 45
9 10 9 7 7 5 3 5 5 3 4 1 4 7 4 3 8 9 7 7 8 9 11 12 11 10 10 11 9 9 12 13 13 15 18 20 21 20 19 18 17 17 17 16 14 14 16 17 15 16 17 19 21 24 27 30 32 34 36 36 35 36 36 36 35 35 36 37 37 38 40 41 41 42 42 43 42 43 43 43 43 43 43 43 44 44 43
11 12 10 8 7 7 7 5 1 3 5 4 7 5 1 4 7 8 8 9 10 10 11 10 7 9 13 10 3 6 10 11 12 15 17 19 18 16 15 15 14 14 14 14 13 14 16 17 16 16 16 17 20 22 24 28 30 31 32 32 32 32 32 33 33 34 35 35 35 35 36 36 38 40 41 42 42 42 41 41 41 41 42 43 42 43 45
10 10 10 10 8 6 9 13 8 3 4 5 3 0 2 5 7 7 8 9 9 9 10 10 9 11 11 6 4 8 8 8 10 12 13 13 11 11 12 12 12 12 12 12 12 12 13 14 15 16 16 17 18 19 21 23 25 26 28 29 29 29 29 30 31 33 33 34 34 34 33 33 35 38 40 41 40 40 40 39 38 35 34 36 36 39 42
9 9 10 11 8 5 10 13 10 6 5 3 5 7 9 12 12 8 7 7 7 9 11 11 12 14 10 3 5 8 8 8 8 8 8 7 5 4 4 5 7 9 10 10 11 11 11 12 14 15 16 15 15 17 19 20 21 22 24 25 26 25 26 27 28 30 32 32 33 33 32 33 35 37 38 39 39 39 40 38 33 27 24 25 28 32 35
8 9 10 5 3 3 6 10 11 9 4 4 7 9 12 15 14 11 9 8 8 9 11 13 13 13 9 3 4 7 8 8 8 7 6 6 6 5 4 3 4 5 7 9 11 11 12 13 14 15 16 16 17 18 20 20 20 19 19 20 20 20 21 22 24 25 27 28 28 29 29 30 32 33 35 36 36 35 34 34 31 27 25 24 26 28 31
7 8 8 7 10 13 12 11 14 14 7 2 4 7 10 12 12 12 12 11 10 10 11 13 12 11 9 6 5 7 8 8 9 8 7 7 7 7 6 5 5 6 7 9 10 13 15 15 16 16 16 16 17 17 17 16 16 16 15 15 14 15 16 17 18 19 20 22 22 23 23 25 27 28 30 31 29 25 23 24 25 26 27 26 27 28 29
10 11 13 15 16 16 17 17 16 14 9 5 5 6 8 9 9 10 12 13 12 11 10 10 10 9 9 7 7 8 9 9 9 9 9 8 8 8 8 7 6 7 9 11 12 13 14 15 16 17 15 14 14 14 13 13 13 14 14 14 14 14 15 15 15 16 16 16 17 18 19 20 20 19 20 21 21 19 18 20 22 22 24 26 27 29 31
9 8 10 14 16 15 17 19 19 16 12 9 7 6 7 8 8 9 10 10 10 9 8 8 9 9 9 9 8 9 10 10 10 10 10 10 9 9 8 7 6 7 9 11 13 15 16 14 14 15 15 14 13 12 11 9 8 9 9 10 11 11 12 12 12 13 14 13 13 14 16 17 16 15 15 16 17 17 19 21 22 22 23 24 25 28 30
10 9 12 18 22 23 22 21 19 17 14 11 8 8 8 7 7 8 8 7 6 6 5 6 8 8 10 10 9 9 10 11 10 10 10 10 9 8 7 7 6 7 9 11 14 16 18 17 16 16 15 15 14 13 12 11 11 10 9 9 9 9 9 9 8 8 10 11 11 10 10 11 12 13 13 14 15 16 17 18 21 22 23 23 24 26 28
11 12 15 18 20 22 24 23 20 18 16 13 11 10 8 7 7 8 7 3 1 1 2 3 6 8 9 9 10 11 12 11 11 10 10 9 9 8 8 7 7 7 9 11 12 15 17 17 17 16 16 15 14 13 13 12 11 10 10 11 11 10 9 9 8 8 7 7 8 8 8 10 12 14 15 16 17 19 18 19 21 23 25 27 27 27 29
11 11 12 13 12 12 15 15 15 15 14 14 14 12 9 7 7 7 6 3 3 3 2 4 7 10 10 11 12 12 12 12 11 11 11 10 9 9 9 9 9 9 10 11 12 13 14 14 15 15 14 13 13 12 11 10 10 11 12 12 11 10 10 8 8 8 7 7 7 6 7 8 7 8 10 11 13 15 15 17 19 21 23 26 27 28 32
12 14 15 14 12 11 12 14 16 16 15 16 16 13 10 9 7 5 6 5 6 6 6 6 8 10 11 12 13 14 13 12 12 12 12 11 11 11 11 12 12 12 12 13 14 13 13 13 13 13 13 12 12 12 10 9 10 12 15 15 14 12 12 11 10 9 9 9 10 10 10 9 8 7 7 5 3 3 4 6 8 9 11 13 15 20 26
19 22 22 19 16 16 17 19 20 21 21 20 17 12 10 10 9 8 7 7 7 9 10 11 10 11 11 12 13 14 14 14 14 15 15 15 15 15 14 14 15 15 15 15 16 16 15 15 14 14 14 13 12 12 12 11 11 14 17 19 19 18 18 18 18 17 17 17 16 15 14 12 10 9 8 7 6 4 4 4 5 5 5 7 8 11 14
23 24 23 20 19 20 22 24 28 29 26 20 14 11 10 10 10 11 10 9 9 10 12 13 12 11 10 11 12 14 15 15 17 18 19 19 18 18 18 17 16 17 17 16 17 17 18 18 17 17 16 15 14 15 15 14 15 18 21 22 23 23 23 23 22 21 19 18 16 14 12 10 9 8 7 6 6 7 7 7 7 7 7 9 11 12 14
26 27 24 21 21 23 22 22 26 27 21 16 12 10 10 10 13 13 11 11 13 13 14 15 13 12 12 13 15 17 19 20 22 22 21 20 20 20 19 18 17 17 17 18 18 19 19 19 18 18 17 16 15 15 15 15 16 19 21 21 20 20 19 17 17 17 17 16 14 12 10 9 8 8 8 7 8 8 9 9 9 9 11 13 15 16 18
25 24 22 18 19 21 21 20 20 17 15 15 13 11 10 11 15 15 12 12 16 18 18 17 15 14 14 15 18 21 23 25 26 26 25 23 22 21 19 18 18 18 17 18 18 18 19 18 18 18 18 16 15 15 15 16 18 19 20 20 19 18 16 13 12 13 13 13 11 10 9 9 9 9 9 8 8 9 10 11 12 13 14 16 17 19 21
25 24 23 20 18 18 19 21 19 14 14 14 13 13 12 12 16 15 13 14 19 22 22 20 18 17 18 19 20 23 26 27 27 26 25 24 23 21 20 19 19 18 18 18 17 18 19 18 18 19 17 15 15 16 16 16 18 18 17 17 16 14 13 12 11 12 12 11 11 10 9 9 10 10 8 6 6 6 7 10 13 14 14 15 16 19 22
26 25 25 25 24 22 19 18 17 16 15 15 16 17 15 15 17 15 13 14 17 19 20 20 20 21 22 23 23 24 26 26 24 23 22 22 22 22 21 20 19 18 18 18 18 18 19 19 20 20 18 15 15 15 15 15 16 15 14 13 12 11 10 10 10 11 11 11 10 9 9 9 9 8 6 6 6 6 6 10 13 12 12 15 19 21 23
25 25 24 24 24 23 18 17 20 19 18 21 25 24 20 19 19 17 14 13 15 19 22 21 21 21 22 22 23 23 24 25 24 23 21 21 21 22 20 18 18 19 18 19 19 19 19 20 20 20 18 16 15 15 16 16 15 15 15 15 13 11 10 10 9 8 8 8 8 8 7 7 8 8 7 7 8 7 8 12 13 11 11 16 21 22 22
20 23 22 20 18 17 17 19 21 19 21 29 31 29 26 24 21 19 17 14 14 19 23 22 22 23 23 23 23 22 22 23 25 24 23 22 22 21 19 18 19 20 20 19 19 19 19 20 20 20 19 18 16 15 15 16 15 14 14 15 15 14 13 11 9 7 7 7 6 6 6 6 8 9 9 8 9 9 9 12 12 10 10 16 20 20 19
20 18 17 18 18 17 16 16 15 16 24 31 31 29 28 24 20 19 20 18 16 18 22 24 24 24 23 23 25 26 25 24 23 23 22 21 21 21 20 20 20 21 20 19 19 19 19 19 18 17 17 18 17 16 15 15 15 14 13 13 14 14 14 13 11 10 9 8 7 6 6 6 7 8 9 9 9 8 8 11 12 10 10 15 19 18 15
24 18 15 20 21 18 16 15 14 17 23 28 29 28 27 24 21 20 20 18 16 19 24 26 25 24 25 26 29 32 32 28 25 24 23 21 20 20 20 19 19 18 18 18 18 17 17 17 16 15 15 15 16 15 15 14 14 13 12 11 11 12 13 13 12 11 10 10 8 7 7 7 7 8 9 9 10 8 8 10 12 11 9 12 17 16 12
29 21 18 22 23 20 18 16 17 21 25 26 27 27 25 23 22 21 21 21 21 21 24 24 22 22 26 28 28 29 29 27 25 24 23 21 21 21 20 19 19 18 18 18 17 16 15 15 14 13 13 13 13 14 14 13 12 12 11 10 9 9 10 11 11 11 11 10 8 7 7 7 7 8 9 9 8 8 8 10 12 10 8 10 13 14 13
25 20 17 18 18 18 18 17 19 24 26 26 26 26 24 22 23 24 24 25 26 26 26 27 25 24 25 26 25 25 26 25 23 22 21 20 20 20 20 21 21 21 21 20 19 17 15 15 13 12 13 13 12 11 11 11 11 10 9 9 8 8 8 8 8 9 10 9 8 7 7 7 7 9 9 9 8 7 8 10 11 9 8 9 10 11 13
18 18 17 18 18 19 20 20 21 24 28 30 30 29 27 27 29 30 29 29 30 30 31 33 32 30 28 27 25 25 24 23 22 24 24 22 21 21 23 24 23 23 22 21 19 19 18 17 16 14 13 13 12 11 10 10 10 9 8 8 8 7 7 6 6 6 8 8 8 8 8 7 8 9 9 8 8 7 7 8 9 8 8 9 9 10 11
19 21 22 23 24 26 25 25 27 30 33 35 34 32 30 30 31 33 33 32 32 32 33 34 34 34 32 31 29 27 25 23 23 25 28 27 26 26 28 27 25 24 24 22 21 20 20 18 17 15 14 14 13 12 10 9 8 8 8 8 7 7 7 7 6 6 7 7 7 7 7 6 7 8 8 8 9 8 7 7 7 7 7 9 9 8 9
28 29 30 31 32 33 33 33 35 38 39 39 37 35 34 33 34 35 36 35 34 34 34 34 33 33 32 31 30 29 27 27 28 29 30 29 30 30 29 25 23 24 25 23 21 21 21 20 17 16 15 14 13 12 11 10 9 9 9 8 8 9 9 8 7 7 8 8 8 8 8 7 7 7 7 7 8 7 7 7 7 7 7 8 7 6 6
41 41 42 42 43 44 44 43 42 43 44 43 41 39 38 38 38 39 39 38 38 38 37 37 36 35 35 34 32 30 28 28 31 33 32 31 31 32 30 28 26 26 25 22 20 20 21 21 20 18 16 14 12 11 11 10 10 11 11 11 11 11 11 11 10 9 9 9 9 9 10 10 10 9 8 7 6 6 6 6 6 8 8 8 6 4 3
47 48 50 50 50 50 49 48 48 47 46 45 44 42 40 40 42 42 41 40 39 38 38 38 38 38 37 36 35 32 29 28 28 28 28 28 30 30 30 30 28 26 24 23 22 21 21 21 21 21 20 17 14 12 11 11 11 12 12 12 13 13 12 12 11 11 10 11 10 10 10 11 11 11 11 10 8 7 6 4 3 4 7 8 8 6 2
47 49 51 51 50 50 50 49 50 49 47 45 43 42 40 40 40 40 40 38 37 36 36 37 36 35 34 34 33 32 30 28 27 26 25 26 26 27 27 28 27 25 24 23 23 22 22 21 20 20 19 19 17 16 16 16 16 16 16 16 16 15 14 13 12 12 12 11 11 10 10 10 11 12 13 13 11 9 7 5 4 4 4 5 5 5 4
40 43 45 45 44 45 46 46 46 45 43 41 39 37 36 35 36 36 35 34 34 33 33 33 33 32 31 31 31 30 28 28 28 28 28 27 25 24 24 25 24 23 23 23 23 23 23 22 20 18 18 18 17 17 18 20 20 21 21 21 20 20 19 17 15 14 13 12 12 11 11 11 11 12 14 15 15 13 10 8 6 4 2 2 1 0 3
38 38 38 39 39 40 41 42 41 41 39 37 35 34 33 32 33 33 32 32 32 31 31 31 31 31 30 29 29 28 26 24 24 25 27 28 27 25 24 24 23 22 22 24 25 24 23 22 20 18 16 16 16 17 19 20 21 21 21 22 22 22 22 21 20 18 16 16 15 14 14 14 14 14 14 15 16 16 14 12 9 5 3 3 2 2 6
38 37 37 37 36 36 37 37 36 37 36 34 32 31 30 30 30 30 30 30 30 29 29 29 30 31 30 29 29 30 28 26 23 22 23 25 26 26 24 22 22 22 23 24 25 24 23 21 19 18 16 16 16 18 20 21 22 22 22 22 22 22 22 22 22 21 20 20 19 18 17 16 15 14 14 14 14 15 15 15 13 10 8 7 8 8 9
36 35 35 34 34 34 33 32 31 32 31 30 29 28 28 28 27 27 27 27 27 27 27 27 27 28 29 29 28 28 28 28 26 23 22 22 23 23 22 22 22 23 24 24 24 23 22 20 18 17 18 19 19 20 21 22 22 21 21 21 22 22 22 22 22 22 22 22 22 21 21 21 19 18 17 16 15 15 15 15 14 13 13 13 13 13 13
32 32 32 31 31 31 30 29 28 28 28 28 28 28 26 25 24 24 23 23 24 24 24 24 24 24 25 25 24 23 23 25 25 24 21 20 20 20 20 21 23 23 24 25 25 25 23 21 19 18 19 21 22 22 23 23 22 22 22 21 21 22 22 21 21 21 21 22 22 22 23 23 23 21 20 20 19 18 16 14 13 14 15 15 14 13 13
29 29 29 29 28 27 27 26 26 26 27 27 27 26 23 22 22 22 21 21 20 20 20 20 20 20 20 20 20 18 17 18 19 20 18 17 17 18 18 19 21 22 23 24 25 25 24 23 22 21 22 23 24 23 23 23 23 23 23 22 22 22 21 21 21 20 20 21 21 21 22 23 23 23 22 22 22 21 19 17 14 13 13 13 13 12 12
27 27 26 26 25 25 25 25 25 26 26 26 25 23 22 21 20 20 19 19 18 18 18 18 18 18 17 17 17 16 15 14 16 16 16 14 14 15 16 16 17 19 20 20 21 22 22 22 23 23 24 24 23 23 23 23 24 24 24 24 23 23 22 22 21 21 21 21 21 21 21 21 22 22 23 23 23 22 22 20 18 16 14 12 12 11 10
24 24 23 23 23 23 23 23 24 23 22 22 21 20 19 18 18 19 19 18 17 17 17 16 16 16 16 15 14 14 13 13 13 13 12 12 12 12 12 13 14 15 16 16 17 18 19 19 21 22 22 22 21 21 21 22 22 23 23 24 24 24 23 23 23 22 22 22 22 22 22 22 22 22 23 23 23 23 22 22 21 19 16 14 13 11 9
21 21 21 21 20 20 20 21 20 20 19 18 17 16 15 15 16 17 17 17 17 16 16 15 16 16 15 14 12 11 10 9 9 8 8 8 9 9 9 9 10 11 12 13 14 14 15 16 17 19 19 19 18 18 19 20 20 21 21 21 21 22 22 22 22 22 23 23 23 23 23 23 23 23 23 23 23 23 23 22 21 20 18 17 17 15 13
18 18 18 18 18 18 18 18 18 17 17 16 16 15 14 15 15 15 15 15 15 15 15 14 15 15 14 13 12 10 7 6 6 5 5 5 7 7 7 7 8 8 9 10 11 12 12 12 13 14 15 15 15 15 16 16 17 18 18 18 18 18 19 19 20 21 21 22 22 22 22 22 22 22 23 23 23 23 23 23 22 21 20 19 18 17 16
16 16 15 15 15 15 16 16 16 15 15 14 15 15 14 14 14 14 14 14 14 14 14 13 13 13 12 10 10 9 8 6 5 5 4 4 5 5 6 5 6 6 7 8 9 10 10 10 10 11 11 12 12 13 13 13 14 14 15 15 16 16 16 17 17 17 18 19 19 19 20 20 20 20 20 21 22 22 22 22 22 21 21 20 19 18 16
Wind_Direction
266 279 283 284 289 268 246 226 216 211 211 213 217 223 225 219 225 235 213 210 222 224 213 204 204 213 221 230 250 274 298 298 284 257 221 202 189 184 196 223 232 239 251 246 236 231 228 220 215 214 213 212 213 214 213 210 207 207 211 217 221 223 227 230 232 232 231 230 230 230 231 231 231 231 232 233 234 235 236 236 237 236 236 238 240 241 239
267 258 252 255 260 252 246 241 231 221 219 220 221 224 228 230 234 239 234 228 227 227 230 235 239 242 247 257 271 278 277 272 275 271 239 213 202 201 215 244 265 277 278 265 249 240 233 226 220 217 216 215 217 218 216 213 210 207 211 218 223 225 228 231 233 234 233 232 232 232 232 233 233 232 233 234 235 236 237 237 237 237 237 238 240 242 242
256 243 240 242 245 243 241 237 233 231 231 230 229 229 228 231 235 237 238 241 237 229 233 245 250 250 252 257 261 266 274 282 286 280 264 251 256 257 236 244 276 294 296 282 263 249 241 234 227 223 222 222 220 216 214 215 215 210 210 218 224 227 229 232 234 235 236 235 234 234 234 234 234 234 234 236 237 238 239 239 239 239 239 239 240 242 243
236 224 224 231 239 248 249 239 229 227 229 230 232 232 231 231 234 236 237 240 241 233 234 242 245 245 246 250 252 257 267 274 276 275 267 258 264 269 257 273 290 296 298 292 276 261 250 240 233 229 227 225 223 218 213 213 215 212 211 219 226 229 229 231 235 237 237 236 236 236 236 236 236 236 237 238 239 239 240 241 241 242 241 241 241 242 244
235 202 207 229 242 247 245 235 226 224 226 230 232 232 233 233 234 236 237 239 242 240 239 240 237 234 239 247 252 255 259 264 268 269 264 260 269 278 279 290 295 294 293 290 278 267 259 247 240 235 230 227 227 225 217 210 208 208 213 221 227 229 229 231 235 237 236 237 237 238 238 238 238 238 238 239 240 241 242 243 243 243 243 242 242 242 243
239 210 220 245 235 234 239 230 223 225 224 226 229 231 231 230 232 240 247 250 247 240 238 238 235 236 246 254 257 256 257 257 259 263 264 268 277 282 283 287 289 287 286 283 273 268 262 251 241 235 234 233 232 230 222 213 209 211 216 221 226 229 232 233 236 237 237 237 238 238 240 240 240 240 240 240 241 242 242 243 244 244 244 244 244 243 243
256 263 256 233 225 229 262 103 205 227 229 229 232 235 235 232 232 236 241 245 245 243 242 242 242 249 256 259 259 257 256 254 253 259 265 270 275 278 279 280 279 277 278 277 273 270 265 252 234 227 231 232 229 228 225 219 217 219 221 223 226 231 234 236 237 237 237 238 238 238 239 240 240 241 241 242 242 242 242 243 245 246 246 246 246 246 245
256 258 232 223 230 357 329 213 183 212 222 224 233 235 233 233 234 235 238 243 244 243 242 243 250 257 260 259 257 256 257 257 254 257 261 264 266 269 271 271 270 270 270 270 271 272 270 260 236 220 222 224 221 222 223 221 221 223 223 225 228 232 236 238 237 237 237 238 238 238 238 239 240 241 242 243 243 242 242 243 245 247 248 248 248 248 248
242 243 240 241 272 303 249 212 127 88 176 165 255 241 235 233 235 236 237 242 246 245 245 247 252 256 259 258 255 253 250 250 252 255 256 257 261 263 265 265 264 264 265 266 270 274 272 262 237 215 213 214 213 215 219 220 222 223 224 227 230 232 235 236 236 237 237 237 238 237 237 238 240 241 242 243 244 244 243 243 243 246 248 249 249 250 250
234 243 249 241 249 256 227 171 101 72 56 44 35 255 253 244 244 246 241 242 246 246 246 248 248 249 251 250 256 256 246 240 245 250 250 252 256 258 258 259 258 259 262 264 268 270 264 252 232 209 206 208 210 213 216 216 218 221 225 228 230 232 233 234 235 236 237 238 238 238 239 240 242 243 244 245 245 245 245 245 245 246 247 249 251 252 253
229 236 241 234 238 240 166 123 104 76 52 61 148 230 235 222 13 347 306 271 257 251 252 248 238 233 237 243 256 258 242 224 224 234 239 243 247 250 252 253 254 258 261 263 263 259 249 238 222 206 203 203 206 212 216 215 216 223 228 229 230 233 234 235 237 238 240 241 241 242 243 244 245 245 246 246 247 247 249 249 249 248 246 246 249 252 253
228 231 236 239 245 240 171 114 95 46 12 45 212 231 217 73 26 4 346 319 297 291 293 272 237 218 235 254 264 244 211 193 198 216 226 232 238 245 250 251 251 253 254 252 246 237 230 223 210 199 199 201 203 211 219 219 218 224 229 231 233 235 235 236 238 240 241 242 242 244 245 246 247 248 248 249 249 250 251 250 249 248 246 246 247 250 251
227 232 239 244 244 242 245 243 168 9 319 253 219 221 115 34 356 350 344 322 312 313 311 296 262 240 247 256 245 151 159 169 193 214 225 231 236 241 244 244 242 240 240 235 226 223 224 218 204 191 190 196 200 208 218 221 221 224 230 233 235 237 237 237 238 239 240 243 244 246 246 248 251 251 250 251 250 250 250 250 250 250 249 249 248 249 253
225 227 234 244 245 233 243 252 254 258 255 239 210 192 352 330 327 337 330 317 319 321 308 296 286 279 271 253 160 142 152 169 191 210 222 228 232 236 238 234 224 218 218 218 215 217 218 213 202 192 188 191 198 208 218 223 222 223 228 233 236 238 239 239 239 240 242 244 246 247 247 249 250 250 250 251 251 251 250 250 250 250 250 251 249 249 253
225 230 229 237 246 216 211 233 246 233 225 280 349 341 327 326 331 336 326 321 328 322 310 300 288 282 284 269 145 139 142 153 169 188 199 195 187 195 215 217 204 196 194 196 196 196 194 194 194 189 184 184 190 200 208 211 210 213 221 229 234 236 237 237 237 238 240 243 246 247 248 249 249 249 251 251 252 252 251 250 250 248 246 247 249 251 252
216 222 216 219 316 305 221 223 236 238 240 350 342 324 321 324 328 334 332 329 329 316 308 305 291 271 259 229 138 130 135 142 149 160 167 160 148 136 130 137 150 153 160 170 173 170 167 171 176 176 176 179 184 192 200 204 208 214 222 229 234 237 237 236 235 235 238 242 247 249 250 250 250 249 250 251 253 254 253 251 249 247 245 246 249 252 251
257 259 262 292 317 309 295 275 259 257 268 318 297 293 301 305 314 325 321 317 322 316 304 297 285 263 243 220 173 149 145 141 142 152 155 151 147 140 132 127 125 124 124 128 139 148 152 158 165 169 175 183 189 193 198 203 209 214 217 221 226 231 236 238 237 237 237 240 243 246 248 248 249 249 249 250 250 248 247 247 246 246 247 248 248 250 251
291 287 277 276 281 288 298 301 291 284 289 288 273 276 282 288 303 311 308 308 311 308 301 291 275 258 243 222 182 152 144 145 151 157 157 154 151 146 139 131 123 121 115 109 116 128 136 146 157 162 167 177 184 186 189 194 202 207 209 210 211 215 221 225 226 226 226 228 231 234 235 237 240 243 244 244 243 240 240 244 245 245 247 248 248 251 253
284 276 265 271 281 294 305 307 303 297 288 284 285 277 272 284 298 297 297 304 302 294 289 280 266 254 239 220 185 150 149 160 164 161 157 157 157 153 148 137 127 124 117 110 113 119 122 129 142 150 156 162 166 167 165 162 166 174 185 196 200 201 203 207 209 210 208 209 215 222 228 229 231 233 235 237 239 239 239 242 245 247 249 250 251 252 254
261 265 274 282 290 296 298 296 295 290 283 281 284 278 270 274 283 287 290 296 295 290 279 262 251 239 227 214 188 166 166 169 165 159 155 155 157 155 147 137 132 127 116 109 115 121 122 122 126 133 139 141 142 142 138 130 127 127 133 145 157 162 165 168 172 183 192 197 199 203 215 222 223 227 233 237 241 242 242 243 247 250 252 253 254 257 258
260 263 269 273 279 283 280 278 280 281 281 283 278 268 265 260 255 264 272 266 253 265 251 234 222 213 208 198 181 172 169 164 157 152 147 145 148 147 139 133 132 125 115 109 111 115 119 122 126 128 130 131 131 131 128 126 125 122 124 131 138 140 142 144 144 144 153 169 177 183 197 207 212 217 219 223 230 235 239 242 245 249 254 257 259 262 263
257 257 258 259 263 265 268 280 292 288 281 277 267 256 250 241 232 232 230 201 132 121 163 201 201 193 186 181 173 165 160 156 151 145 140 138 137 134 128 125 122 117 113 109 106 105 109 115 120 122 122 125 128 126 123 122 124 129 135 138 139 140 141 142 143 142 145 154 159 167 183 192 201 209 210 214 225 233 240 245 248 252 259 262 265 268 268
259 261 262 265 268 269 277 296 305 299 283 267 254 244 234 219 197 178 178 165 134 125 135 159 175 170 164 164 159 148 143 143 139 133 132 129 126 122 118 117 117 115 111 107 103 100 99 100 104 106 106 109 112 113 111 111 117 131 140 141 138 138 137 134 132 131 129 129 128 129 133 134 131 127 119 113 136 195 239 260 265 268 271 274 277 275 271
264 263 265 269 273 277 281 283 284 287 282 262 241 227 217 200 168 141 141 136 125 130 134 133 137 142 146 150 145 135 132 131 126 124 123 121 118 116 114 114 115 112 109 105 102 100 99 97 96 96 95 94 95 97 98 100 106 118 127 127 122 118 116 115 115 115 115 116 118 119 119 117 116 112 98 82 68 52 24 352 338 332 319 315 314 304 295
261 259 262 267 270 273 276 276 276 279 275 255 227 207 201 183 148 131 137 134 123 125 127 123 119 118 122 128 128 123 122 121 119 119 117 115 115 113 110 109 109 108 106 104 102 101 99 97 96 95 93 92 92 94 96 97 102 109 114 115 113 111 111 112 112 112 113 113 111 109 104 97 90 81 69 52 33 20 13 7 0 355 348 339 333 331 327
258 256 258 261 265 267 269 272 276 273 257 227 201 188 184 161 131 124 134 135 128 122 120 120 115 107 105 112 117 117 116 115 113 111 109 109 109 108 108 108 107 106 104 102 100 99 98 96 96 94 93 92 93 96 97 97 98 103 105 105 104 103 104 105 104 103 104 102 98 92 83 75 69 59 45 35 27 19 13 12 8 357 350 347 341 337 333
256 251 250 253 257 258 257 260 264 254 222 198 182 166 156 141 130 128 126 126 131 133 131 127 118 108 107 111 111 111 110 109 108 107 105 105 104 103 104 105 104 104 103 100 98 98 95 94 94 93 91 91 91 93 96 99 102 103 102 101 100 101 101 100 97 97 96 92 87 80 71 64 60 53 42 34 27 22 17 16 11 359 353 351 347 345 345
254 246 241 239 238 242 250 255 250 223 194 182 160 138 129 123 123 126 126 127 133 134 130 122 112 107 109 110 107 106 106 105 105 104 102 101 103 103 103 103 101 100 98 95 94 93 91 89 88 86 84 85 86 88 92 97 100 103 103 101 99 96 95 92 87 84 81 76 73 72 70 67 63 59 52 41 30 26 17 11 7 3 2 360 354 352 356
245 238 233 231 233 243 255 251 229 201 180 156 126 111 108 107 106 109 117 123 125 123 117 111 108 110 111 109 106 105 103 101 99 97 95 97 101 103 103 102 101 98 94 90 88 87 86 84 81 79 77 76 79 83 86 88 90 90 88 87 87 85 82 81 78 75 72 68 67 65 63 64 63 56 44 31 30 28 11 4 8 11 11 4 358 358 4
229 225 226 227 234 243 238 205 185 174 152 123 104 93 91 94 95 96 101 105 110 113 110 104 101 103 103 101 100 100 99 97 96 94 93 95 99 102 103 102 98 92 88 86 85 83 82 81 78 76 74 71 71 73 74 76 78 77 74 73 74 76 78 78 78 79 75 70 68 65 60 56 51 43 34 28 26 17 3 3 9 12 9 5 3 7 13
204 205 210 210 215 219 203 179 170 156 126 107 98 91 88 87 85 87 86 77 78 95 102 100 96 94 93 93 95 94 92 92 93 92 91 92 95 98 97 94 89 84 81 82 82 81 80 79 77 76 75 73 71 71 71 71 72 72 70 68 66 70 76 77 73 74 76 72 65 62 58 51 42 39 36 29 19 5 356 1 6 6 6 6 7 10 14
163 165 172 171 174 183 181 171 165 144 115 103 99 96 93 89 84 82 81 72 64 76 90 94 93 92 91 91 92 94 93 90 86 85 86 86 87 89 89 85 82 78 75 75 77 78 78 77 76 78 80 78 76 76 76 77 78 75 72 68 64 64 71 75 71 67 67 66 62 56 53 48 42 37 31 26 21 10 356 356 360 3 11 13 9 9 13
141 137 153 165 169 172 167 159 151 132 113 105 104 102 100 99 97 91 89 87 80 78 82 85 85 87 92 93 92 94 95 90 81 77 77 77 77 80 81 79 78 74 71 70 71 74 77 77 78 80 80 77 77 77 77 79 81 77 73 72 67 62 65 70 71 67 61 58 57 53 47 44 42 38 33 30 27 19 2 356 358 3 18 22 13 6 4
134 142 170 180 173 162 154 149 136 122 112 107 107 106 105 106 105 102 100 100 94 86 84 84 81 82 87 89 88 88 88 84 79 77 78 76 75 76 76 76 76 74 72 69 67 69 74 76 75 74 73 72 74 76 74 73 76 77 74 71 68 65 65 66 69 69 64 57 54 51 46 42 39 36 34 32 29 22 12 7 7 9 17 18 10 1 354
139 151 166 168 157 144 140 137 128 119 112 107 106 108 111 113 112 109 106 102 97 94 94 96 95 90 86 84 83 82 81 80 79 79 80 77 76 77 77 76 75 73 71 68 63 62 68 74 73 68 67 68 69 71 71 68 65 67 70 67 61 61 65 67 71 74 68 57 50 47 44 41 37 32 29 27 25 23 20 17 17 20 23 22 16 8 358
144 144 138 131 126 124 124 121 117 114 111 108 108 110 111 110 109 108 106 102 100 98 97 97 96 90 83 79 79 78 78 79 79 79 80 78 77 79 79 75 72 69 67 64 61 61 65 72 72 68 64 63 63 63 67 69 65 61 65 67 63 60 60 60 61 65 61 51 44 41 38 37 39 38 33 26 21 18 17 19 21 22 23 26 27 20 10
128 127 122 117 116 116 114 111 111 111 108 107 107 108 107 106 104 104 105 104 101 99 98 95 91 83 78 77 77 75 74 75 76 79 80 79 78 80 78 73 68 66 63 60 63 67 69 71 73 70 64 59 58 57 60 66 68 64 62 65 68 67 64 61 58 55 49 41 36 35 31 27 31 36 33 27 22 15 6 7 14 13 13 17 19 16 14
87 95 98 100 102 102 100 100 103 105 104 103 103 103 104 105 103 102 102 101 99 98 97 94 88 84 82 81 78 74 72 73 76 77 77 74 73 74 71 65 62 63 62 62 67 73 74 73 72 68 61 54 52 55 61 66 69 66 62 63 68 67 62 60 59 53 45 38 33 31 27 23 25 30 29 24 20 12 1 358 1 1 4 13 17 17 22
64 71 78 83 86 89 89 89 91 94 97 98 98 97 98 99 100 99 99 98 98 99 97 93 89 88 88 88 84 78 74 75 78 78 77 74 74 74 72 68 67 67 67 67 69 72 74 73 68 63 61 58 54 55 60 61 64 65 64 62 64 63 58 54 50 46 41 37 34 29 26 26 29 30 27 24 20 13 4 359 358 359 3 7 1 357 32
62 64 68 71 75 78 81 82 84 86 89 92 93 94 95 97 97 98 98 97 97 97 96 94 91 89 88 88 87 83 77 74 74 73 71 71 73 74 72 71 70 70 69 69 68 68 70 71 67 63 63 62 61 64 66 64 64 68 68 64 62 60 57 54 51 48 43 39 36 34 30 28 31 33 30 28 24 16 8 3 360 7 14 13 1 348 4
66 68 70 71 72 75 78 80 83 85 87 88 90 92 93 94 94 95 96 96 95 95 94 94 92 89 86 85 84 80 77 75 74 71 67 66 65 65 65 66 68 69 70 70 69 67 66 66 66 66 67 66 68 74 79 78 75 75 76 74 70 66 61 57 53 50 46 42 40 40 37 32 32 33 32 29 27 22 16 13 14 21 31 31 16 7 35
72 74 76 77 78 81 83 84 85 88 89 90 91 92 92 91 92 93 93 93 92 91 90 89 89 89 88 87 84 79 76 74 73 73 72 67 63 62 63 64 67 69 69 68 67 65 62 61 62 66 71 74 76 79 81 81 79 77 77 77 75 71 67 63 58 52 50 48 46 46 47 43 38 35 33 30 30 30 31 30 29 31 46 60 40 82 114
77 78 80 82 84 86 89 90 91 92 94 94 94 94 93 92 91 92 91 90 89 87 85 84 82 81 83 85 85 83 78 71 67 68 69 68 66 66 66 65 65 66 66 65 64 62 60 60 62 66 72 79 81 81 79 78 77 76 75 75 73 70 68 66 63 61 60 58 55 53 53 51 46 42 39 36 34 33 36 40 42 43 41 38 50 139 149
75 77 79 80 81 83 86 89 90 93 94 93 92 91 89 88 88 88 87 85 83 81 80 80 79 78 77 77 77 78 78 74 68 63 63 63 64 64 65 66 67 66 66 65 63 60 59 60 63 66 71 75 79 81 78 75 74 74 74 73 71 69 67 66 66 65 64 62 59 57 57 58 57 55 53 49 43 39 39 41 44 52 65 80 96 113 124
75 76 77 77 78 80 82 84 85 88 90 89 87 85 83 83 83 82 81 80 79 78 76 77 78 79 79 76 72 72 75 76 74 69 63 62 62 62 63 66 68 68 68 67 64 61 59 59 61 65 70 71 73 75 75 74 73 72 72 72 72 71 69 68 68 67 65 64 63 62 61 61 60 61 61 60 57 52 47 45 47 59 74 87 95 101 107
70 71 72 73 75 78 81 82 83 85 84 83 82 81 80 79 79 79 79 78 78 78 77 76 77 78 80 79 76 72 72 74 77 75 71 69 71 71 69 70 70 70 69 68 66 63 62 61 61 65 69 70 68 67 68 69 70 71 71 71 72 71 71 70 69 68 67 66 65 65 64 63 62 61 62 62 62 62 59 53 50 57 68 78 83 88 95
68 69 71 73 75 77 78 79 80 80 78 77 78 80 79 78 78 79 79 78 78 78 78 77 77 77 78 80 81 79 75 75 78 80 77 76 77 75 72 72 72 70 66 64 63 62 60 60 62 66 69 69 67 65 64 65 66 67 68 70 70 69 69 69 67 66 67 67 65 63 63 63 62 62 61 60 60 60 60 58 56 57 62 70 76 81 84
72 72 73 75 76 75 74 75 75 76 76 76 77 78 77 76 76 77 76 76 76 76 75 74 74 73 72 73 76 79 78 77 79 80 78 77 77 74 70 69 71 70 67 63 61 58 55 54 57 63 65 65 63 61 62 63 64 63 64 65 66 67 67 67 66 65 65 65 64 63 62 61 61 60 59 58 58 57 56 56 56 55 56 61 69 73 76
76 76 76 77 77 77 77 77 76 75 75 75 75 73 72 72 72 70 67 65 64 65 66 65 65 65 63 62 64 67 70 72 75 78 77 74 74 73 69 63 62 66 67 65 62 59 55 51 52 56 60 60 59 59 60 61 61 61 61 60 60 60 62 63 64 64 63 62 61 61 61 61 61 60 58 57 56 55 55 54 54 52 53 56 61 63 64
75 75 76 77 78 80 82 83 82 80 78 77 75 73 71 71 71 70 65 59 55 55 56 56 56 55 54 52 50 53 58 63 67 72 74 70 66 66 66 61 57 60 65 66 64 61 58 55 54 56 59 59 59 60 61 60 59 59 60 59 58 57 56 56 57 58 58 58 58 57 56 57 57 58 58 57 55 53 52 52 51 50 49 50 51 52 54
67 66 66 70 75 79 82 84 85 85 84 82 80 77 73 70 72 74 72 65 58 52 49 49 50 48 45 43 41 38 40 47 52 55 63 67 62 57 57 56 53 51 55 60 62 60 59 58 59 61 62 61 60 60 62 61 60 60 60 59 58 57 57 56 55 55 55 54 54 53 52 52 51 52 53 53 53 52 51 51 49 48 47 47 46 45 44
58 59 59 62 66 72 76 78 78 78 78 79 79 76 71 67 67 67 68 66 61 52 45 42 41 38 35 34 33 30 28 30 35 37 44 60 62 58 56 57 56 53 53 56 57 57 58 58 58 60 65 66 63 60 60 62 63 63 62 60 58 56 56 57 58 57 54 53 51 48 46 45 45 45 46 46 47 46 46 45 44 45 46 46 46 45 43